DW9864 Weather Reports


time (UTC)temp
C
wind
direction
speed
KPH
gust
KPH
rain 1hr
cm
rain 24hr
cm
rain mn
cm
humidity
%
barometer
mb
20260510180003 16 197 0.0 3.2 0.00 0.38 0.38 77 1009.0
20260510175517 17 197 0.0 3.2 0.00 0.38 0.38 78 1009.0
20260510175003 17 196 1.6 4.8 0.00 0.38 0.38 77 1009.0
20260510174503 17 193 1.6 4.8 0.00 0.38 0.38 78 1009.0
20260510174017 17 187 1.6 3.2 0.00 0.38 0.38 78 1008.9
20260510173503 17 186 1.6 3.2 0.00 0.38 0.38 78 1008.9
20260510173003 17 186 1.6 3.2 0.00 0.38 0.38 78 1008.9
20260510172503 17 184 1.6 3.2 0.00 0.38 0.38 78 1009.0
20260510172003 17 189 1.6 4.8 0.00 0.38 0.38 78 1009.0
20260510171503 16 228 1.6 4.8 0.00 0.38 0.38 78 1009.0
20260510171017 16 212 3.2 4.8 0.00 0.38 0.38 78 1009.2
20260510170503 17 184 1.6 4.8 0.00 0.38 0.38 79 1009.1
20260510170003 17 154 1.6 3.2 0.00 0.38 0.38 81 1009.1
20260510165503 16 154 1.6 3.2 0.00 0.38 0.38 80 1009.2
20260510165003 17 155 1.6 3.2 0.00 0.38 0.38 81 1009.4
20260510164503 16 159 0.0 3.2 0.00 0.38 0.38 81 1009.5
20260510164003 16 160 1.6 3.2 0.00 0.38 0.38 82 1009.5
20260510163503 16 160 0.0 3.2 0.00 0.38 0.38 81 1009.6
20260510163003 16 160 1.6 3.2 0.00 0.38 0.38 81 1009.7
20260510162503 16 159 1.6 3.2 0.00 0.38 0.38 81 1009.9
20260510162003 15 158 1.6 6.4 0.00 0.38 0.38 80 1009.8
20260510161503 15 167 3.2 8.0 0.00 0.38 0.38 80 1009.8
20260510161003 15 177 3.2 8.0 0.00 0.38 0.38 81 1009.7
20260510160503 15 177 3.2 8.0 0.00 0.38 0.38 82 1009.7
20260510160003 15 170 3.2 8.0 0.00 0.38 0.38 85 1009.9
20260510155503 15 154 3.2 9.7 0.00 0.38 0.38 84 1010.1
20260510155017 15 155 4.8 9.7 0.00 0.38 0.38 84 1009.8
20260510154503 14 157 3.2 9.7 0.00 0.38 0.38 85 1009.8
20260510154003 14 147 3.2 11.3 0.03 0.38 0.38 84 1009.8
20260510153503 14 157 4.8 12.9 0.05 0.38 0.38 86 1010.0
20260510153017 14 146 3.2 12.9 0.08 0.38 0.38 86 1010.2
20260510152503 15 71 1.6 4.8 0.13 0.38 0.38 89 1009.8
20260510152003 14 108 1.6 9.7 0.13 0.38 0.38 89 1009.7
20260510151503 14 141 3.2 11.3 0.15 0.38 0.38 89 1009.7
20260510151003 13 147 3.2 11.3 0.15 0.38 0.38 88 1010.2
20260510150503 13 176 3.2 9.7 0.18 0.38 0.38 88 1010.6
20260510150003 13 234 1.6 4.8 0.20 0.38 0.38 87 1010.8
20260510145503 13 242 1.6 4.8 0.28 0.38 0.38 86 1010.9
20260510145003 13 235 1.6 4.8 0.38 0.38 0.38 85 1010.9
20260510144503 13 157 1.6 4.8 0.38 0.38 0.38 85 1011.1
20260510144003 13 119 1.6 6.4 0.36 0.36 0.36 84 1011.0
20260510143503 13 16 0.0 6.4 0.33 0.33 0.33 84 1011.2
20260510143007 13 3 1.6 4.8 0.30 0.30 0.30 83 1011.3
20260510142503 13 356 1.6 9.7 0.25 0.25 0.25 82 1011.4
20260510142003 13 328 6.4 17.7 0.25 0.25 0.25 82 1011.6
20260510141503 13 316 9.7 17.7 0.23 0.23 0.23 79 1011.6
20260510141017 13 298 9.7 22.5 0.23 0.23 0.23 79 1011.7
20260510140503 14 258 11.3 24.1 0.20 0.20 0.20 79 1011.7
20260510140017 15 230 8.0 24.1 0.18 0.18 0.18 77 1011.5
20260510135517 16 212 4.8 24.1 0.10 0.10 0.10 75 1011.2
20260510135003 17 250 3.2 12.9 0.00 0.00 0.00 73 1011.1
20260510134503 17 312 1.6 11.3 0.00 0.00 0.00 70 1010.8
20260510134018 18 347 1.6 6.4 0.00 0.00 0.00 69 1010.2
20260510133503 18 75 1.6 6.4 0.00 0.00 0.00 69 1009.8
20260510133003 18 89 3.2 9.7 0.00 0.00 0.00 69 1009.7
20260510132503 18 78 3.2 9.7 0.00 0.00 0.00 68 1009.3
20260510132017 18 30 3.2 6.4 0.00 0.00 0.00 67 1009.1
20260510131503 18 20 3.2 9.7 0.00 0.00 0.00 67 1009.0
20260510131006 18 91 3.2 9.7 0.00 0.00 0.00 66 1008.9
20260510130503 19 98 3.2 4.8 0.00 0.00 0.00 64 1008.9
20260510130003 19 147 3.2 6.4 0.00 0.00 0.00 64 1008.8
20260510125503 19 189 3.2 8.0 0.00 0.00 0.00 64 1008.8
20260510125003 19 122 1.6 8.0 0.00 0.00 0.00 61 1008.7
20260510124503 20 77 1.6 6.4 0.00 0.00 0.00 60 1008.8
20260510124003 20 77 1.6 6.4 0.00 0.00 0.00 58 1008.9
20260510123003 20 83 1.6 4.8 0.00 0.00 0.00 57 1008.9
20260510122503 20 46 1.6 6.4 0.00 0.00 0.00 56 1009.0
20260510122003 20 76 1.6 6.4 0.00 0.00 0.00 55 1009.0
20260510121503 20 99 3.2 6.4 0.00 0.00 0.00 53 1008.9
20260510121003 20 100 3.2 6.4 0.00 0.00 0.00 53 1009.1
20260510120517 21 76 3.2 9.7 0.00 0.00 0.00 51 1009.2
20260510120003 21 317 4.8 11.3 0.00 0.00 0.00 49 1009.3
20260510115503 21 306 4.8 12.9 0.00 0.00 0.00 49 1009.2
20260510115003 21 312 6.4 17.7 0.00 0.00 0.00 48 1009.1
20260510114503 21 311 8.0 17.7 0.00 0.00 0.00 52 1009.3
20260510114017 21 307 6.4 16.1 0.00 0.00 0.00 51 1009.3
20260510113503 21 309 6.4 16.1 0.00 0.00 0.00 49 1009.4
20260510113003 21 311 4.8 12.9 0.00 0.00 0.00 49 1009.4
20260510112503 21 292 4.8 12.9 0.00 0.00 0.00 50 1009.5
20260510112003 21 230 4.8 12.9 0.00 0.00 0.00 47 1009.5
20260510111503 21 186 6.4 12.9 0.00 0.00 0.00 47 1009.5
20260510111003 21 188 6.4 14.5 0.00 0.00 0.00 46 1009.7
20260510110503 21 205 6.4 14.5 0.00 0.00 0.00 46 1009.9
20260510110003 21 181 8.0 17.7 0.00 0.00 0.00 47 1009.9
20260510105503 21 169 8.0 17.7 0.00 0.00 0.00 45 1010.0
20260510105003 21 177 9.7 20.9 0.00 0.00 0.00 47 1010.1
20260510104517 20 177 11.3 20.9 0.00 0.00 0.00 48 1010.1
20260510104017 20 178 11.3 27.4 0.00 0.00 0.00 48 1010.2
20260510103503 20 178 12.9 27.4 0.00 0.00 0.00 47 1010.3
20260510103003 20 179 11.3 25.7 0.00 0.00 0.00 48 1010.2
20260510102503 21 173 11.3 25.7 0.00 0.00 0.00 48 1010.2
20260510102017 20 183 9.7 25.7 0.00 0.00 0.00 47 1010.3
20260510101503 20 215 4.8 17.7 0.00 0.00 0.00 49 1010.2
20260510101003 20 208 4.8 12.9 0.00 0.00 0.00 49 1010.4
20260510100503 20 184 3.2 12.9 0.00 0.00 0.00 52 1010.3
20260510100003 20 219 4.8 12.9 0.00 0.00 0.00 51 1010.1
20260510095503 20 174 8.0 22.5 0.00 0.00 0.00 52 1010.2
20260510095003 20 162 11.3 22.5 0.00 0.00 0.00 51 1010.2
20260510094503 20 172 11.3 22.5 0.00 0.00 0.00 49 1010.2
20260510094003 20 178 8.0 22.5 0.00 0.00 0.00 50 1010.3
20260510093503 20 181 6.4 16.1 0.00 0.00 0.00 49 1010.3
20260510093017 20 193 6.4 17.7 0.00 0.00 0.00 51 1010.3
20260510092517 20 180 8.0 20.9 0.00 0.00 0.00 49 1010.3
20260510092003 20 188 9.7 20.9 0.00 0.00 0.00 50 1010.4
20260510091503 20 200 8.0 14.5 0.00 0.00 0.00 50 1010.5
20260510091003 20 209 8.0 16.1 0.00 0.00 0.00 51 1010.4
20260510090517 20 195 9.7 19.3 0.00 0.00 0.00 51 1010.4
20260510090003 19 174 9.7 20.9 0.00 0.00 0.00 51 1010.5
20260510085503 19 182 9.7 20.9 0.00 0.00 0.00 51 1010.5
20260510085003 20 192 8.0 20.9 0.00 0.00 0.00 51 1010.4
20260510084503 19 175 9.7 22.5 0.00 0.00 0.00 51 1010.7
20260510084003 19 180 11.3 22.5 0.00 0.00 0.00 53 1010.5
20260510083503 18 193 9.7 20.9 0.00 0.00 0.00 53 1010.4
20260510083003 18 188 8.0 19.3 0.00 0.00 0.00 54 1010.4
20260510082503 18 173 8.0 22.5 0.00 0.00 0.00 54 1010.3
20260510082003 18 177 8.0 22.5 0.00 0.00 0.00 54 1010.4
20260510081503 18 176 6.4 16.1 0.00 0.00 0.00 55 1010.4
20260510081003 18 181 8.0 16.1 0.00 0.00 0.00 55 1010.4
20260510080517 18 190 8.0 16.1 0.00 0.00 0.00 55 1010.3
20260510080003 18 188 9.7 19.3 0.00 0.00 0.00 55 1010.2
20260510075503 18 186 8.0 19.3 0.00 0.00 0.00 55 1010.3
20260510075003 18 177 8.0 19.3 0.00 0.00 0.00 57 1010.2
20260510074503 18 186 8.0 19.3 0.00 0.00 0.00 57 1010.1
20260510074003 18 188 9.7 25.7 0.00 0.00 0.00 56 1010.1
20260510073503 18 182 9.7 25.7 0.00 0.00 0.00 57 1010.1
20260510073003 18 186 9.7 20.9 0.00 0.00 0.00 58 1009.8
20260510072503 18 195 11.3 25.7 0.00 0.00 0.00 58 1009.8
20260510072003 18 195 11.3 25.7 0.00 0.00 0.00 57 1009.8
20260510071504 17 183 12.9 27.4 0.00 0.00 0.00 58 1009.7
20260510071003 17 177 12.9 27.4 0.00 0.00 0.00 58 1009.6
20260510070503 17 176 11.3 25.7 0.00 0.00 0.00 59 1009.6
20260510070003 17 188 11.3 22.5 0.00 0.00 0.00 60 1009.4
20260510065503 17 183 11.3 29.0 0.00 0.00 0.00 60 1009.3
20260510065003 17 172 11.3 29.0 0.00 0.00 0.00 61 1009.4
20260510064503 17 186 9.7 22.5 0.00 0.00 0.00 60 1009.3
20260510064003 17 185 9.7 22.5 0.00 0.00 0.00 61 1009.3
20260510063503 17 185 11.3 22.5 0.00 0.00 0.00 61 1009.2
20260510063003 17 204 11.3 24.1 0.00 0.00 0.00 60 1009.4
20260510062503 17 201 9.7 24.1 0.00 0.00 0.00 61 1009.1
20260510062017 17 184 6.4 16.1 0.00 0.00 0.00 62 1009.1
20260510061517 16 183 8.0 19.3 0.00 0.00 0.00 62 1008.9
20260510061017 16 189 8.0 19.3 0.00 0.00 0.00 62 1009.0
20260510060517 16 186 8.0 19.3 0.00 0.00 0.00 62 1008.9
20260510060003 16 190 9.7 24.1 0.00 0.00 0.00 61 1008.8
20260510055517 17 195 9.7 24.1 0.00 0.00 0.00 61 1008.7
20260510055003 17 193 11.3 22.5 0.00 0.00 0.00 62 1008.7
20260510054503 17 192 11.3 22.5 0.00 0.00 0.00 61 1008.6
20260510054017 17 183 11.3 20.9 0.00 0.00 0.00 61 1008.6
20260510053503 17 190 11.3 24.1 0.00 0.00 0.00 61 1008.6
20260510053003 17 201 11.3 24.1 0.00 0.00 0.00 61 1008.6
20260510052503 17 207 9.7 20.9 0.00 0.00 0.00 62 1008.6
20260510052017 16 196 8.0 16.1 0.00 0.00 0.00 63 1008.7
20260510051503 16 194 9.7 19.3 0.00 0.00 0.00 63 1008.6
20260510051003 17 194 11.3 22.5 0.00 0.00 0.00 63 1008.4
20260510050503 17 190 11.3 22.5 0.00 0.00 0.00 63 1008.4
20260510050003 16 199 11.3 19.3 0.00 0.00 0.00 63 1008.5
20260510045503 16 208 9.7 19.3 0.00 0.00 0.00 65 1008.5
20260510045003 16 203 6.4 12.9 0.00 0.00 0.00 66 1008.5
20260510044517 16 205 6.4 12.9 0.00 0.00 0.00 66 1008.4
20260510044003 16 217 4.8 9.7 0.00 0.00 0.00 66 1008.5
20260510043503 16 196 4.8 14.5 0.00 0.00 0.00 65 1008.6
20260510043017 16 189 6.4 14.5 0.00 0.00 0.00 65 1008.5
20260510042503 16 200 8.0 12.9 0.00 0.00 0.00 64 1008.6
20260510042003 17 194 9.7 17.7 0.00 0.00 0.00 63 1008.6
20260510041503 17 199 9.7 25.7 0.00 0.00 0.00 62 1008.6
20260510041003 17 197 9.7 25.7 0.00 0.00 0.00 63 1008.7
20260510040503 17 186 9.7 17.7 0.00 0.00 0.00 63 1008.7
20260510040003 17 180 11.3 22.5 0.00 0.00 0.00 64 1008.6
20260510035503 17 173 9.7 24.1 0.00 0.00 0.00 63 1008.6
20260510035003 17 182 8.0 24.1 0.00 0.00 0.00 63 1008.7
20260510034517 17 194 8.0 14.5 0.00 0.00 0.00 63 1008.8
20260510034017 17 205 6.4 14.5 0.00 0.00 0.00 63 1008.7
20260510033503 17 204 6.4 12.9 0.00 0.00 0.00 63 1008.7
20260510033017 17 188 6.4 16.1 0.00 0.00 0.00 63 1008.6
20260510032503 17 189 6.4 16.1 0.00 0.00 0.00 63 1008.6
20260510032003 17 199 6.4 16.1 0.00 0.00 0.00 63 1008.6
20260510031517 17 198 6.4 16.1 0.00 0.00 0.00 64 1008.6
20260510031003 17 187 8.0 16.1 0.00 0.00 0.00 63 1008.6
20260510030503 17 186 8.0 14.5 0.00 0.00 0.00 63 1008.6
20260510030017 17 203 8.0 14.5 0.00 0.00 0.00 64 1008.6
20260510025503 17 204 8.0 16.1 0.00 0.00 0.00 64 1008.7
20260510025017 17 214 6.4 16.1 0.00 0.00 0.00 64 1008.4
20260510024517 17 217 6.4 14.5 0.00 0.00 0.00 64 1008.6
20260510024003 17 196 6.4 16.1 0.00 0.00 0.00 63 1008.5
20260510023517 17 187 8.0 17.7 0.00 0.00 0.00 63 1008.5
20260510023017 17 202 8.0 17.7 0.00 0.00 0.00 63 1008.4
20260510022503 17 224 4.8 16.1 0.00 0.00 0.00 63 1008.6
20260510022017 17 190 4.8 16.1 0.00 0.00 0.00 63 1008.5
20260510021503 17 188 6.4 12.9 0.00 0.00 0.00 63 1008.7
20260510021003 17 178 8.0 17.7 0.00 0.00 0.00 63 1008.7
20260510020503 17 174 9.7 17.7 0.00 0.00 0.00 62 1008.8
20260510020003 17 199 8.0 17.7 0.00 0.00 0.00 63 1008.6
20260510015503 17 208 6.4 16.1 0.00 0.00 0.00 64 1008.7
20260510015003 17 195 8.0 14.5 0.00 0.00 0.00 64 1008.7
20260510014503 17 192 9.7 17.7 0.00 0.00 0.00 63 1008.6
20260510014003 17 187 9.7 19.3 0.00 0.00 0.00 63 1008.5
20260510013503 17 182 8.0 19.3 0.00 0.00 0.00 63 1008.6
20260510013003 17 178 8.0 17.7 0.00 0.00 0.00 63 1008.6
20260510012503 17 184 8.0 17.7 0.00 0.00 0.00 63 1008.7
20260510012003 17 183 8.0 17.7 0.00 0.00 0.00 63 1008.7
20260510011503 17 176 9.7 19.3 0.00 0.00 0.00 62 1008.7
20260510011003 17 180 9.7 19.3 0.00 0.00 0.00 62 1008.8
20260510010517 17 183 9.7 25.7 0.00 0.00 0.00 62 1008.8
20260510010003 18 185 11.3 25.7 0.00 0.00 0.00 62 1008.7
20260510005503 18 185 12.9 27.4 0.00 0.00 0.00 61 1008.8
20260510005003 18 184 12.9 29.0 0.00 0.00 0.00 61 1008.8
20260510004503 18 189 11.3 29.0 0.00 0.00 0.00 62 1008.8
20260510004003 18 200 11.3 22.5 0.00 0.00 0.00 62 1008.8
20260510003503 18 183 11.3 25.7 0.00 0.00 0.00 61 1008.7
20260510003003 18 178 12.9 25.7 0.00 0.00 0.00 61 1008.6
20260510002517 18 179 11.3 24.1 0.00 0.00 0.00 61 1008.7
20260510002003 18 175 12.9 24.1 0.00 0.00 0.00 61 1008.6
20260510001503 18 181 11.3 25.7 0.00 0.00 0.00 60 1008.7
20260510001003 18 179 11.3 25.7 0.00 0.00 0.00 59 1008.7
20260510000503 18 182 11.3 22.5 0.00 0.00 0.00 59 1008.7
20260510000003 18 187 11.3 27.4 0.00 0.00 0.00 58 1008.7
20260509235503 18 184 11.3 27.4 0.00 0.00 0.00 58 1008.8
20260509235003 18 177 11.3 30.6 0.00 0.00 0.00 58 1008.7
20260509234503 18 186 11.3 30.6 0.00 0.00 0.00 58 1008.8
20260509234003 18 203 11.3 22.5 0.00 0.00 0.00 58 1008.8
20260509233517 18 195 11.3 22.5 0.00 0.00 0.00 58 1008.7
20260509233003 18 181 11.3 25.7 0.00 0.00 0.00 58 1008.6
20260509232503 18 179 9.7 25.7 0.00 0.00 0.00 59 1008.8
20260509232003 18 176 11.3 20.9 0.00 0.00 0.00 59 1008.9
20260509231503 18 173 11.3 19.3 0.00 0.00 0.00 60 1008.8
20260509231017 18 172 9.7 20.9 0.00 0.00 0.00 60 1008.8
20260509230503 18 173 9.7 20.9 0.00 0.00 0.00 60 1008.8
20260509230017 18 176 8.0 19.3 0.00 0.00 0.00 60 1008.9
20260509225517 18 182 6.4 17.7 0.00 0.00 0.00 59 1009.0
20260509225003 18 175 8.0 25.7 0.00 0.00 0.00 59 1009.0
20260509224503 18 166 9.7 25.7 0.00 0.00 0.00 59 1009.0
20260509224003 18 170 8.0 24.1 0.00 0.00 0.00 59 1009.0
20260509223503 18 175 8.0 24.1 0.00 0.00 0.00 59 1009.1
20260509223017 18 167 4.8 14.5 0.00 0.00 0.00 60 1009.2
20260509222503 18 159 6.4 17.7 0.00 0.00 0.00 59 1009.2
20260509222003 18 161 6.4 17.7 0.00 0.00 0.00 59 1009.2
20260509221503 18 158 6.4 16.1 0.00 0.00 0.00 59 1009.2
20260509221003 18 175 6.4 17.7 0.00 0.00 0.00 60 1009.2
20260509220503 18 201 6.4 17.7 0.00 0.00 0.00 61 1009.3
20260509220017 18 236 4.8 16.1 0.00 0.00 0.00 61 1009.2
20260509215503 18 277 1.6 14.5 0.00 0.00 0.00 60 1009.3
20260509215003 18 257 1.6 6.4 0.00 0.00 0.00 59 1009.2
20260509214503 18 253 0.0 3.2 0.00 0.00 0.00 59 1009.3
20260509214017 18 253 1.6 3.2 0.00 0.00 0.00 58 1009.2
20260509213503 19 252 1.6 4.8 0.00 0.00 0.00 58 1009.2
20260509213003 19 229 1.6 8.0 0.00 0.00 0.00 58 1009.2
20260509212503 19 247 3.2 8.0 0.00 0.00 0.00 58 1009.3
20260509212003 19 256 3.2 11.3 0.00 0.00 0.00 58 1009.2
20260509211503 19 219 4.8 11.3 0.00 0.00 0.00 57 1009.1
20260509211003 19 184 6.4 16.1 0.00 0.00 0.00 57 1009.1
20260509210503 19 203 8.0 17.7 0.00 0.00 0.00 57 1009.1
20260509210003 19 226 4.8 17.7 0.00 0.00 0.00 57 1009.2
20260509205517 19 195 1.6 14.5 0.00 0.00 0.00 58 1009.1
20260509205003 19 200 1.6 9.7 0.00 0.00 0.00 58 1009.1
20260509204503 19 193 3.2 9.7 0.00 0.00 0.00 58 1009.2
20260509204003 19 190 3.2 6.4 0.00 0.00 0.00 58 1009.2
20260509203503 19 186 3.2 19.3 0.00 0.00 0.00 58 1009.2
20260509203003 19 167 4.8 19.3 0.00 0.00 0.00 57 1009.0
20260509202503 20 120 3.2 8.0 0.00 0.00 0.00 58 1009.0
20260509202003 20 108 1.6 6.4 0.00 0.00 0.00 57 1008.9
20260509201517 20 267 0.0 4.8 0.00 0.00 0.00 57 1008.9
20260509201003 20 217 1.6 4.8 0.00 0.00 0.00 57 1009.0
20260509200503 20 167 3.2 12.9 0.00 0.00 0.00 56 1008.8
20260509200017 20 134 4.8 12.9 0.00 0.00 0.00 56 1008.8
20260509195503 20 124 4.8 12.9 0.00 0.00 0.00 55 1008.8
20260509195003 20 151 4.8 14.5 0.00 0.00 0.00 55 1008.7
20260509194517 20 145 4.8 14.5 0.00 0.00 0.00 55 1008.7
20260509194003 20 121 3.2 11.3 0.00 0.00 0.00 54 1008.7
20260509193503 20 120 3.2 14.5 0.00 0.00 0.00 53 1008.8
20260509193003 21 126 3.2 14.5 0.00 0.00 0.00 53 1008.7
20260509192503 21 138 3.2 11.3 0.00 0.00 0.00 53 1008.7
20260509192003 21 153 6.4 16.1 0.00 0.00 0.00 52 1008.8
20260509191503 21 161 6.4 17.7 0.00 0.00 0.00 52 1008.8
20260509191017 21 159 6.4 17.7 0.00 0.00 0.00 52 1008.7
20260509190503 21 149 3.2 9.7 0.00 0.00 0.00 52 1008.6
20260509190003 21 134 1.6 6.4 0.00 0.00 0.00 52 1008.6
20260509185517 21 141 4.8 22.5 0.00 0.00 0.00 52 1008.5
20260509185003 21 140 4.8 22.5 0.00 0.00 0.00 52 1008.5
20260509184503 20 120 3.2 11.3 0.00 0.00 0.00 55 1008.6
20260509184017 20 164 4.8 11.3 0.00 0.00 0.00 55 1008.4
20260509183503 21 180 3.2 11.3 0.00 0.00 0.00 55 1008.4
20260509183003 21 3 1.6 4.8 0.00 0.00 0.00 56 1008.4
20260509182503 21 350 1.6 8.0 0.00 0.00 0.00 58 1008.4
20260509182003 21 343 1.6 8.0 0.00 0.00 0.00 54 1008.3
20260509181503 21 331 0.0 6.4 0.00 0.00 0.00 58 1008.4
20260509181003 21 311 0.0 4.8 0.00 0.00 0.00 57 1008.3
20260509180503 21 310 1.6 6.4 0.00 0.00 0.00 57 1008.3